Tracking 18630 objects as of 25-May-2017
HD Live streaming from Space Station
objects crossing your sky now

SSU 3

Track SSU 3 now!
10-day predictions
SSU 3 is classified as:


NORAD ID: 8884
Int'l Code: 1976-038J
Perigee: 453.5 km
Apogee: 1,487.2 km
Inclination: 63.3 °
Period: 104.3 minutes
Semi major axis: 7341 km
RCS: Unknown
Launch date: April 30, 1976
Source: United States (US)
Launch site: AIR FORCE WESTERN TEST RANGE (AFWTR)
Your satellite tracking list
Your tracking list is empty





NASA's NSSDC Master Catalog

Two Line Element Set (TLE):
1 08884U 76038J   17129.90310622 0.00000333  00000-0  43941-4 0    02
2 08884  63.2986  64.5381 0704019 132.3960 227.6040 13.80187761    09
Source of the keplerian elements: McCants